Location: Unspecified
(0.0000°N, 0.0000°E)
Time: 18:49:27
(UTC+00:00)

Courier 1B Rocket - Pass Details

Date: 22 November 2019
Orbit: 920 x 1202 km, 28.2° (Epoch: 05 December)

Event Time Altitude Azimuth Distance (km) Brightness Sun altitude
Rises 18:59:33 0° 322° (NW) 4,004 8.4 -17.2°
Reaches altitude 10° 19:03:03 10° 337° (NNW) 3,077 7.6 -18.0°
Maximum altitude 19:08:51 23° 26° (NNE) 2,295 6.5 -19.4°
Enters shadow 19:09:35 23° 34° (NE) 2,313 6.5 -19.5°
